Weather History for Phuket, Thailand

Change the Weather History Date:

Monday, December 31, 2012

  Actual Average Record
Temperature  
Mean Temperature 80 °F -  
Max Temperature 86 °F 89 °F 93 °F (1996)
Min Temperature 75 °F 74 °F 37 °F (1997)
Cooling Degree Days 16    
Growing Degree Days 30 (Base 50)    
Moisture  
Dew Point 74 °F    
Average Humidity 77    
Maximum Humidity 92    
Minimum Humidity 66    
Precipitation  
Precipitation 0.01 in 0.05 in - ()
Sea Level Pressure  
Sea Level Pressure 29.79 in    
Wind  
Wind Speed 6 mph ()    
Max Wind Speed 16 mph    
Max Gust Speed -    
Visibility 5.1 miles    
Events Rain    
Averages and records for this station are not official NWS values.
T = Trace of Precipitation, MM = Missing Value Source: Averaged Metar Reports

Daily Weather History Graph

Daily Weather History Graph

Search for Another Location

Airport:

Trip Planner

Search our weather history database for the weather conditions in past years. The results will help you decide how hot, cold, wet, or windy it might be!

Date:

Astronomy

Dec. 31, 2012 Rise Set
Actual Time 6:39 AM ICT 6:19 PM ICT
Civil Twilight 6:17 AM ICT 6:42 PM ICT
Nautical Twilight 5:51 AM ICT 7:08 PM ICT
Astronomical Twilight 5:24 AM ICT 7:34 PM ICT
Moon 8:44 PM ICT (12/31) 8:34 AM ICT (12/31)
Length of Visible Light 12h 25m
Length of Day
11h 39m
Waning Gibbous, 93% of the Moon is Illuminated
Dec 31
Waning Gibbous
Jan 5
Last Quarter
Jan 12
New
Jan 19
First Quarter
Jan 27
Full

Hourly Weather History & Observations

Time (ICT) Temp. Heat Index Dew Point Humidity Pressure Visibility Wind Dir Wind Speed Gust Speed Precip Events Conditions
12:30 AM 78.8 °F - 75.2 °F 89% 29.80 in 5.0 mi Calm Calm - N/A   Mostly Cloudy
1:00 AM 78 °F - 76 °F 92% 29.77 in 6 mi Calm Calm - -   Mist
1:00 AM 80.6 °F 86.2 °F 75.2 °F 84% 29.80 in 5.0 mi Variable 3.5 mph - N/A   Mostly Cloudy
1:30 AM 78.8 °F - 75.2 °F 89% 29.80 in 5.0 mi ENE 5.8 mph - N/A   Mostly Cloudy
2:00 AM 80.6 °F 85.4 °F 73.4 °F 79% 29.77 in 5.0 mi ENE 5.8 mph - N/A   Mostly Cloudy
2:30 AM 80.6 °F 85.4 °F 73.4 °F 79% 29.77 in 5.0 mi ENE 5.8 mph - N/A   Mostly Cloudy
4:00 AM 78.8 °F - 73.4 °F 83% 29.74 in 5.0 mi East 6.9 mph - N/A   Mostly Cloudy
5:00 AM 78.8 °F - 73.4 °F 83% 29.74 in 5.0 mi ENE 6.9 mph - N/A   Mostly Cloudy
6:00 AM 78.8 °F - 73.4 °F 83% 29.74 in 5.0 mi East 5.8 mph - N/A   Mostly Cloudy
6:30 AM 78.8 °F - 73.4 °F 83% 29.74 in 5.0 mi East 4.6 mph - N/A   Mostly Cloudy
7:00 AM 79 °F - 76 °F 88% 29.73 in 6 mi Calm Calm - -   Mist
7:00 AM 80.6 °F 85.4 °F 73.4 °F 79% 29.77 in 5.0 mi East 4.6 mph - N/A   Mostly Cloudy
7:30 AM 80.6 °F 85.4 °F 73.4 °F 79% 29.80 in 5.0 mi East 6.9 mph - N/A   Mostly Cloudy
8:00 AM 80.6 °F 86.2 °F 75.2 °F 84% 29.80 in 5.0 mi East 4.6 mph - N/A   Mostly Cloudy
8:30 AM 82.4 °F 88.2 °F 73.4 °F 74% 29.83 in 5.0 mi East 6.9 mph - N/A   Mostly Cloudy
9:00 AM 82.4 °F 88.2 °F 73.4 °F 74% 29.83 in 5.0 mi East 10.4 mph - N/A   Mostly Cloudy
9:30 AM 82.4 °F 89.5 °F 75.2 °F 79% 29.83 in 5.6 mi East 9.2 mph - N/A   Mostly Cloudy
10:00 AM 82.4 °F 88.2 °F 73.4 °F 74% 29.83 in 5.6 mi East 16.1 mph - N/A   Mostly Cloudy
10:30 AM 82.4 °F 88.2 °F 73.4 °F 74% 29.83 in 5.6 mi East 11.5 mph - N/A   Mostly Cloudy
11:00 AM 80.6 °F 86.2 °F 75.2 °F 84% 29.83 in 5.0 mi East 11.5 mph - N/A   Mostly Cloudy
11:30 AM 82.4 °F 89.5 °F 75.2 °F 79% 29.83 in 5.0 mi East 11.5 mph - N/A   Mostly Cloudy
12:00 PM 82.4 °F 88.2 °F 73.4 °F 74% 29.83 in 4.3 mi East 9.2 mph - N/A Rain Light Rain
12:30 PM 82.4 °F 88.2 °F 73.4 °F 74% 29.80 in 5.0 mi East 9.2 mph - N/A   Mostly Cloudy
1:00 PM 84 °F - 75 °F 68% 29.78 in 6 mi East 8.1 mph - - Rain Light Rain
1:00 PM 84.2 °F 90.9 °F 73.4 °F 70% 29.77 in 5.0 mi East 10.4 mph - N/A   Mostly Cloudy
2:00 PM 86.0 °F 93.4 °F 73.4 °F 66% 29.74 in 5.0 mi East 10.4 mph - N/A   Mostly Cloudy
2:30 PM 86.0 °F 93.4 °F 73.4 °F 66% 29.74 in 5.0 mi East 8.1 mph - N/A   Mostly Cloudy
3:00 PM 84.2 °F 90.9 °F 73.4 °F 70% 29.74 in 4.3 mi East 13.8 mph - N/A   Mostly Cloudy
3:30 PM 84.2 °F 90.9 °F 73.4 °F 70% 29.74 in 5.0 mi East 9.2 mph - N/A   Mostly Cloudy
4:00 PM 84.2 °F 90.9 °F 73.4 °F 70% 29.74 in 5.0 mi East 11.5 mph - N/A   Mostly Cloudy
4:30 PM 84.2 °F 90.9 °F 73.4 °F 70% 29.74 in 5.0 mi East 8.1 mph - N/A   Mostly Cloudy
5:00 PM 82.4 °F 88.2 °F 73.4 °F 74% 29.74 in 5.0 mi ESE 6.9 mph - N/A   Mostly Cloudy
5:30 PM 82.4 °F 88.2 °F 73.4 °F 74% 29.77 in 5.0 mi East 5.8 mph - N/A   Mostly Cloudy
6:00 PM 82.4 °F 89.5 °F 75.2 °F 79% 29.77 in 5.0 mi ESE 3.5 mph - N/A   Mostly Cloudy
6:30 PM 82.4 °F 89.5 °F 75.2 °F 79% 29.77 in 5.0 mi ESE 8.1 mph - N/A   Mostly Cloudy
7:00 PM 82 °F - 76 °F 77% 29.72 in 6 mi East 4.6 mph - -   Mist
7:00 PM 82.4 °F 88.2 °F 73.4 °F 74% 29.77 in 5.0 mi East 6.9 mph - N/A   Mostly Cloudy
7:30 PM 82.4 °F 89.5 °F 75.2 °F 79% 29.80 in 5.0 mi ESE 5.8 mph - N/A   Mostly Cloudy
8:00 PM 82.4 °F 88.2 °F 73.4 °F 74% 29.80 in 5.0 mi East 4.6 mph - N/A   Mostly Cloudy
8:30 PM 82.4 °F 88.2 °F 73.4 °F 74% 29.80 in 5.0 mi ESE 8.1 mph - N/A   Mostly Cloudy
9:00 PM 82.4 °F 88.2 °F 73.4 °F 74% 29.83 in 5.0 mi East 5.8 mph - N/A   Mostly Cloudy
9:30 PM 82.4 °F 87.2 °F 71.6 °F 70% 29.83 in 5.0 mi East 10.4 mph - N/A   Mostly Cloudy
10:00 PM 82.4 °F 88.2 °F 73.4 °F 74% 29.83 in 5.0 mi East 9.2 mph - N/A   Mostly Cloudy
10:30 PM 80.6 °F 85.4 °F 73.4 °F 79% 29.83 in 5.0 mi East 8.1 mph - N/A   Mostly Cloudy
11:00 PM 82.4 °F 88.2 °F 73.4 °F 74% 29.83 in 5.6 mi East 11.5 mph - N/A   Mostly Cloudy
11:30 PM 82.4 °F 88.2 °F 73.4 °F 74% 29.83 in 5.0 mi East 11.5 mph - N/A   Mostly Cloudy